Liverpool, United Kingdom

11:17 PM BST on October 21, 2017 (GMT +0100)
Liverpool

Weather History for EGGP - February, 2013

Change the Weather History Date:

Monday, February 25, 2013

  Actual Average Record
Temperature  
Mean Temperature 38 °F -  
Max Temperature 44 °F 48 °F 55 °F (2003)
Min Temperature 32 °F 38 °F 30 °F (2001)
Degree Days  
Heating Degree Days 27    
Moisture  
Dew Point 34 °F    
Average Humidity 79    
Maximum Humidity 87    
Minimum Humidity 70    
Precipitation  
Precipitation 0.00 in - - ()
Sea Level Pressure  
Sea Level Pressure 30.47 in    
Wind  
Wind Speed 10 mph ()    
Max Wind Speed 17 mph    
Max Gust Speed -    
Visibility 6.2 miles    
Events Rain    
Averages and records for this station are not official NWS values.
T = Trace of Precipitation, MM = Missing Value Source: Averaged Metar Reports

Daily Weather History Graph

Daily Weather History Graph

Search for Another Location

Airport or City:

Trip Planner

Search our weather history database for the weather conditions in past years. The results will help you decide how hot, cold, wet, or windy it might be!

Date:

Astronomy

Feb. 25, 2013 Rise Set
Actual Time 7:07 AM GMT 5:41 PM GMT
Civil Twilight 6:32 AM GMT 6:17 PM GMT
Nautical Twilight 5:52 AM GMT 6:57 PM GMT
Astronomical Twilight 5:12 AM GMT 7:37 PM GMT
Moon 5:47 PM GMT (2/25) 6:27 AM GMT (2/25)
Length of Visible Light 11h 44m
Length of Day
10h 34m
Full, 100% of the Moon is Illuminated
Feb 25
Full
Feb 25
Full
Mar 4
Last Quarter
Mar 11
New
Mar 19
First Quarter

Hourly Weather History & Observations

Time (GMT) Temp. Windchill Dew Point Humidity Pressure Visibility Wind Dir Wind Speed Gust Speed Precip Events Conditions
12:20 AM 33.8 °F 26.4 °F 30.2 °F 87% 30.42 in - North 9.2 mph - N/A   Clear
12:50 AM 33.8 °F 27.0 °F 30.2 °F 87% 30.42 in - North 8.1 mph - N/A   Clear
1:20 AM 32.0 °F 24.8 °F 28.4 °F 87% 30.42 in 6.2 mi North 8.1 mph - N/A   Mostly Cloudy
1:50 AM 35.6 °F 29.2 °F 30.2 °F 81% 30.42 in 6.2 mi North 8.1 mph - N/A   Mostly Cloudy
2:20 AM 35.6 °F 27.5 °F 30.2 °F 81% 30.42 in 6.2 mi North 11.5 mph - N/A   Mostly Cloudy
2:50 AM 35.6 °F 27.1 °F 30.2 °F 81% 30.42 in 6.2 mi North 12.7 mph - N/A   Mostly Cloudy
3:20 AM 35.6 °F 28.0 °F 30.2 °F 81% 30.42 in 6.2 mi North 10.4 mph - N/A   Mostly Cloudy
3:50 AM 35.6 °F 28.6 °F 30.2 °F 81% 30.39 in 6.2 mi NNW 9.2 mph - N/A   Mostly Cloudy
4:20 AM 35.6 °F 30.7 °F 30.2 °F 81% 30.39 in 6.2 mi NNW 5.8 mph - N/A   Mostly Cloudy
5:50 AM 35.6 °F 27.5 °F 30.2 °F 81% 30.42 in 6.2 mi NNW 11.5 mph - N/A   Mostly Cloudy
6:20 AM 35.6 °F 28.0 °F 30.2 °F 81% 30.42 in 6.2 mi NNW 10.4 mph - N/A   Mostly Cloudy
6:50 AM 37.4 °F 30.8 °F 32.0 °F 81% 30.45 in 6.2 mi NW 9.2 mph - N/A   Partly Cloudy
7:20 AM 37.4 °F 30.8 °F 32.0 °F 81% 30.45 in 6.2 mi NNW 9.2 mph - N/A   Partly Cloudy
7:50 AM 37.4 °F 30.8 °F 33.8 °F 87% 30.45 in 6.2 mi Variable 9.2 mph - N/A   Partly Cloudy
8:20 AM 39.2 °F 33.0 °F 33.8 °F 81% 30.45 in 6.2 mi NNW 9.2 mph - N/A   Partly Cloudy
8:50 AM 39.2 °F 32.5 °F 33.8 °F 81% 30.45 in 6.2 mi NW 10.4 mph - N/A   Partly Cloudy
9:20 AM 39.2 °F 31.2 °F 33.8 °F 81% 30.45 in 6.2 mi North 13.8 mph - N/A   Partly Cloudy
9:50 AM 41.0 °F 33.1 °F 33.8 °F 76% 30.48 in 6.2 mi North 15.0 mph - N/A   Scattered Clouds
10:20 AM 41.0 °F 33.9 °F 33.8 °F 76% 30.48 in 6.2 mi North 12.7 mph - N/A   Mostly Cloudy
10:50 AM 41.0 °F 33.9 °F 33.8 °F 76% 30.48 in 6.2 mi North 12.7 mph - N/A   Mostly Cloudy
11:50 AM 42.8 °F 37.5 °F 33.8 °F 70% 30.48 in 6.2 mi North 9.2 mph - N/A   Scattered Clouds
12:20 PM 42.8 °F 37.0 °F 33.8 °F 70% 30.48 in 6.2 mi North 10.4 mph - N/A   Scattered Clouds
12:50 PM 42.8 °F 36.2 °F 35.6 °F 76% 30.48 in 6.2 mi NNE 12.7 mph - N/A   Scattered Clouds
1:50 PM 42.8 °F 37.0 °F 35.6 °F 76% 30.48 in 6.2 mi NNE 10.4 mph - N/A   Scattered Clouds
2:20 PM 44.6 °F 38.8 °F 35.6 °F 71% 30.48 in 6.2 mi NNE 11.5 mph - N/A   Scattered Clouds
2:50 PM 44.6 °F 40.2 °F 35.6 °F 71% 30.48 in 6.2 mi NNE 8.1 mph - N/A   Scattered Clouds
3:20 PM 44.6 °F 39.7 °F 35.6 °F 71% 30.48 in 6.2 mi North 9.2 mph - N/A   Scattered Clouds
3:50 PM 44.6 °F 38.1 °F 35.6 °F 71% 30.48 in 6.2 mi NNE 13.8 mph - N/A   Scattered Clouds
4:20 PM 42.8 °F 35.8 °F 35.6 °F 76% 30.48 in 6.2 mi NE 13.8 mph - N/A   Scattered Clouds
4:50 PM 42.8 °F 34.8 °F 35.6 °F 76% 30.48 in 6.2 mi NE 17.3 mph - N/A   Mostly Cloudy
5:20 PM 42.8 °F 35.4 °F 35.6 °F 76% 30.48 in 6.2 mi NE 15.0 mph - N/A   Mostly Cloudy
5:50 PM 42.8 °F 34.8 °F 35.6 °F 76% 30.48 in 6.2 mi NE 17.3 mph - N/A   Mostly Cloudy
6:20 PM 42.8 °F 35.4 °F 35.6 °F 76% 30.48 in 6.2 mi NE 15.0 mph - N/A   Mostly Cloudy
6:50 PM 42.8 °F 35.4 °F 35.6 °F 76% 30.51 in 6.2 mi NE 15.0 mph - N/A   Mostly Cloudy
7:20 PM 41.0 °F 33.9 °F 35.6 °F 81% 30.51 in 6.2 mi NNE 12.7 mph - N/A   Mostly Cloudy
7:50 PM 41.0 °F 35.8 °F 35.6 °F 81% 30.51 in 6.2 mi NNE 8.1 mph - N/A Rain Light Rain
8:20 PM 42.8 °F 37.5 °F 37.4 °F 81% 30.51 in 6.2 mi NNE 9.2 mph - N/A Rain Light Rain
8:50 PM 41.0 °F 34.7 °F 35.6 °F 81% 30.51 in 6.2 mi NNE 10.4 mph - N/A   Mostly Cloudy
9:20 PM 41.0 °F 35.8 °F 35.6 °F 81% 30.51 in 6.2 mi NNE 8.1 mph - N/A   Mostly Cloudy
9:50 PM 41.0 °F 35.2 °F 35.6 °F 81% 30.51 in 6.2 mi NE 9.2 mph - N/A   Mostly Cloudy
10:20 PM 41.0 °F 32.8 °F 35.6 °F 81% 30.54 in 6.2 mi ENE 16.1 mph - N/A   Mostly Cloudy
10:50 PM 41.0 °F 32.8 °F 35.6 °F 81% 30.54 in 6.2 mi NE 16.1 mph - N/A   Mostly Cloudy
11:20 PM 41.0 °F 33.9 °F 35.6 °F 81% 30.51 in 6.2 mi NE 12.7 mph - N/A   Mostly Cloudy
11:50 PM 41.0 °F 33.5 °F 35.6 °F 81% 30.51 in 6.2 mi NE 13.8 mph - N/A   Mostly Cloudy